This is the latest recevied weather packets stored in our database for station/object M0TUM-1. If no packets are shown the sender has not sent any weather packets the latest 10 day(s).
| Time | Temp. | Humidity | Pressure | Rain* | Wind** | Luminosity | Snow |
|---|---|---|---|---|---|---|---|
| 1777563597 | 17.78° C | 31% | 1024.2 hPa | 0 mm | - | 382 W/m² | - |
| 1777563296 | 17.22° C | 31% | 1024.1 hPa | 0 mm | - | 410 W/m² | - |
| 1777562993 | 17.78° C | 31% | 1024.3 hPa | 0 mm | - | 419 W/m² | - |
| 1777562689 | 18.33° C | 31% | 1024 hPa | 0 mm | - | 428 W/m² | - |
| 1777562383 | 18.33° C | 30% | 1024.1 hPa | 0 mm | - | 425 W/m² | - |
| 1777562079 | 17.78° C | 31% | 1024 hPa | 0 mm | - | 444 W/m² | - |
| 1777561776 | 18.33° C | 28% | 1024.2 hPa | 0 mm | - | 457 W/m² | - |
| 1777561472 | 18.33° C | 29% | 1024.1 hPa | 0 mm | - | 455 W/m² | - |
| 1777561167 | 17.78° C | 29% | 1024.3 hPa | 0 mm | - | 482 W/m² | - |
| 1777560862 | 18.33° C | 28% | 1024.3 hPa | 0 mm | - | 490 W/m² | - |
| 1777560560 | 18.33° C | 29% | 1024.4 hPa | 0 mm | - | 491 W/m² | - |
| 1777560258 | 18.33° C | 31% | 1024.4 hPa | 0 mm | - | 491 W/m² | - |
| 1777559955 | 18.33° C | 29% | 1024.3 hPa | 0 mm | - | 492 W/m² | - |
| 1777559649 | 18.33° C | 29% | 1024.3 hPa | 0 mm | - | 496 W/m² | - |
| 1777559348 | 18.33° C | 28% | 1024.7 hPa | 0 mm | - | 519 W/m² | - |
| 1777559043 | 17.78° C | 29% | 1024.7 hPa | 0 mm | - | 515 W/m² | - |
| 1777558739 | 17.78° C | 30% | 1024.6 hPa | 0 mm | - | 527 W/m² | - |
| 1777558435 | 17.78° C | 28% | 1025 hPa | 0 mm | - | 537 W/m² | - |
| 1777558131 | 17.78° C | 30% | 1024.9 hPa | 0 mm | - | 538 W/m² | - |
| 1777557828 | 17.22° C | 29% | 1024.9 hPa | 0 mm | - | 547 W/m² | - |
| 1777557525 | 17.78° C | 29% | 1025 hPa | 0 mm | - | 554 W/m² | - |
| 1777557221 | 17.78° C | 29% | 1024.9 hPa | 0 mm | - | 556 W/m² | - |
| 1777556917 | 17.22° C | 30% | 1024.9 hPa | 0 mm | - | 576 W/m² | - |
| 1777556612 | 17.78° C | 31% | 1024.9 hPa | 0 mm | - | 583 W/m² | - |
| 1777556307 | 17.78° C | 30% | 1025.2 hPa | 0 mm | - | 583 W/m² | - |
* Rain latest hour (hover to see other rain measurements)
** Current wind speed in m/s (hover to see current wind gust speed)